This demonstration page uses our WeatherBlox Daily Observations layout. Learn more.

Left ArrowRight Arrow

Hourly Observations for January 15, 2017

Temp ( °F °C ) Dew Point ( °F °C ) Humidity (%) Winds ( mph kmh ) Pressure ( in mb ) Visibility ( mi km ) Precip ( " mm )
12:58 am 00:58 Cloudy 29 -1.8 21 -5.9 74 74 Calm 30.47 1032 10 16 0.00 0.00
1:58 am 01:58 Cloudy 29 -1.8 23 -4.9 80 80 Calm 30.45 1031 10 16 0.00 0.00
2:58 am 02:58 Cloudy 28 -2 24 -4.6 83 83 Calm 30.44 1031 10 16 0.00 0.00
3:58 am 03:58 Cloudy 29 -1.7 24 -4.7 80 80 Calm 30.41 1030 10 16 0.00 0.00
4:58 am 04:58 Cloudy 30 -1.3 19 -7.2 65 65 Calm 30.41 1030 10 16 0.00 0.00
5:58 am 05:58 Cloudy 29 -1.6 23 -4.9 78 78 Calm 30.41 1030 10 16 0.00 0.00
6:58 am 06:58 Cloudy 28 -2.1 23 -5 81 81 Calm 30.40 1030 10 16 0.00 0.00
7:58 am 07:58 Cloudy 29 -1.6 23 -5.1 77 77 Calm 30.39 1029 10 16 0.00 0.00
8:58 am 08:58 Cloudy 30 -0.9 19 -7.3 62 62 Calm 30.39 1029 10 16 0.00 0.00
9:58 am 09:58 Mostly Cloudy 32 0.2 19 -7 59 59 S 3 6 30.40 1029 10 16 0.00 0.00
10:58 am 10:58 Cloudy 33 0.7 20 -6.7 58 58 SSE 7 11 30.38 1029 10 16 0.00 0.00
11:58 am 11:58 Cloudy 34 1 21 -5.9 60 60 SSE 6 9 30.34 1027 10 16 0.00 0.00
12:30 pm 12:30 Cloudy with Light Freezing Rain 32 0 23 -5 69 69 SE 5 7 30.33 1027 10 16 0.00 0.00
12:58 pm 12:58 Cloudy with Light Rain 33 0.4 25 -3.7 74 74 S 6 9 30.30 1026 6 10 0.00 0.03
1:02 pm 13:02 Cloudy with Rain 32 0 27 -3 80 80 S 3 6 30.30 1026 6 10 0.00 0.00
1:09 pm 13:09 Cloudy with Light Rain 32 0 28 -2 87 87 S 5 7 30.30 1026 6 10 0.00 0.00
1:48 pm 13:48 Cloudy with Light Freezing Rain 32 0 30 -1 93 93 S 6 9 30.30 1026 6 10 0.00 0.00
1:58 pm 13:58 Cloudy with Light Freezing Rain 31 -0.5 30 -1 96 96 SE 5 7 30.28 1025 6 10 0.03 0.76
2:49 pm 14:49 Cloudy 32 0 32 0 100 100 ESE 5 7 30.27 1025 10 16 0.00 0.00
2:58 pm 14:58 Cloudy 32 0 32 0 100 100 SE 5 7 30.26 1025 10 16 0.01 0.25
3:03 pm 15:03 Cloudy with Light Freezing Rain 32 0 32 0 100 100 SE 3 6 30.27 1025 6 10 0.00 0.00
3:58 pm 15:58 Cloudy with Light Freezing Rain 32 0 32 0 100 100 ESE 5 7 30.27 1025 5 8 0.00 0.00
4:58 pm 16:58 Cloudy with Light Freezing Rain 32 0 32 0 100 100 E 5 7 30.27 1025 5 8 0.00 0.00
5:55 pm 17:55 Cloudy with Light Freezing Rain 32 0 32 0 100 100 Calm 30.24 1024 6 10 0.00 0.00
6:36 pm 18:36 Cloudy with Light Freezing Rain 32 0 32 0 100 100 ESE 5 7 30.24 1024 7 11 0.00 0.00
6:50 pm 18:50 Cloudy with Light Freezing Rain 32 0 32 0 100 100 ESE 3 6 30.24 1024 7 11 0.00 0.00
7:49 pm 19:49 Cloudy with Light Freezing Drizzle 32 0 32 0 100 100 Calm 30.24 1024 8 13 0.00 0.00
8:05 pm 20:05 Cloudy with Light Freezing Drizzle 32 0 32 0 100 100 Calm 30.24 1024 8 13 0.00 0.00
8:55 pm 20:55 Cloudy 32 0 32 0 100 100 Calm 30.21 1023 10 16 0.00 0.00
9:57 pm 21:57 Cloudy with Light Freezing Drizzle 32 0 32 0 100 100 Calm 30.21 1023 6 10 0.00 0.00
10:49 pm 22:49 Cloudy with Light Freezing Drizzle 32 0 32 0 100 100 Calm 30.21 1023 4 6 0.00 0.00
10:54 pm 22:54 Cloudy with Light Freezing Drizzle 32 0 32 0 100 100 Calm 30.21 1023 4 6 0.00 0.00
11:58 pm 23:58 Cloudy with Light Freezing Drizzle 32 0 32 0 100 100 Calm 30.19 1022 5 8 0.00 0.03

Powered by AerisWeather